This demonstration page uses our WeatherBlox Daily Observations layout. Learn more.

Left ArrowRight Arrow

34.74481, -87.66753

Hourly Observations for June 24, 2018

Temp ( °F °C ) Dew Point ( °F °C ) Humidity (%) Winds ( mph kmh ) Pressure ( in mb ) Visibility ( mi km ) Precip ( " mm )
12:53 am 00:53 Clear 75 23.9 72 22.2 90 90 SW 5 7 29.90 1013 10 16 0.00 0.00
1:53 am 01:53 Clear 74 23.3 71 21.7 91 91 WSW 5 7 29.90 1013 10 16 0.00 0.00
2:53 am 02:53 Clear 75 23.9 72 22.2 90 90 WSW 6 9 29.90 1013 10 16 0.00 0.00
3:53 am 03:53 Clear 73 22.8 71 21.7 94 94 WSW 3 6 29.91 1013 10 16 0.00 0.00
4:53 am 04:53 Clear 74 23.3 71 21.7 91 91 SSW 6 9 29.91 1013 10 16 0.00 0.00
5:53 am 05:53 Sunny 74 23.3 71 21.7 91 91 Calm 29.93 1014 10 16 0.00 0.00
6:53 am 06:53 Partly Cloudy 78 25.6 74 23.3 87 87 Calm 29.96 1015 10 16 0.00 0.00
7:53 am 07:53 Sunny 78 25.6 73 22.8 85 85 WSW 6 9 29.97 1015 10 16 0.00 0.00
8:53 am 08:53 Sunny 82 27.8 75 23.9 79 79 WSW 12 19 29.98 1015 10 16 0.00 0.00
9:53 am 09:53 Sunny 85 29.4 76 24.4 75 75 W 13 20 29.98 1015 10 16 0.00 0.00
10:53 am 10:53 Partly Cloudy 87 30.6 76 24.4 70 70 W 10 17 29.99 1016 10 16 0.00 0.00
11:53 am 11:53 Sunny 88 31.1 75 23.9 66 66 WSW 8 13 29.98 1015 10 16 0.00 0.00
12:53 pm 12:53 Partly Cloudy 89 31.7 76 24.4 65 65 WSW 8 13 29.99 1016 10 16 0.00 0.00
1:53 pm 13:53 Partly Cloudy 89 31.7 75 23.9 63 63 WSW 9 15 29.98 1015 10 16 0.00 0.00
2:53 pm 14:53 Sunny 90 32.2 74 23.3 59 59 SW 15 24 29.96 1015 10 16 0.00 0.00
3:53 pm 15:53 Mostly Cloudy 89 31.7 74 23.3 61 61 SW 14 22 29.96 1015 10 16 0.00 0.00
4:53 pm 16:53 Sunny 89 31.7 73 22.8 59 59 SW 8 13 29.95 1014 10 16 0.00 0.00
5:53 pm 17:53 Sunny 87 30.6 72 22.2 61 61 WSW 8 13 29.96 1014 10 16 0.00 0.00
6:53 pm 18:53 Sunny 87 30.6 72 22.2 61 61 WSW 7 11 29.96 1015 10 16 0.00 0.00
7:53 pm 19:53 Sunny 83 28.3 72 22.2 70 70 WSW 3 6 29.96 1015 10 16 0.00 0.00
8:53 pm 20:53 Clear 79 26.1 74 23.3 85 85 Calm 29.98 1015 10 16 0.00 0.00
9:53 pm 21:53 Clear 78 25.6 74 23.3 87 87 SSE 3 6 29.99 1016 10 16 0.00 0.00
10:53 pm 22:53 Clear 77 25 74 23.3 90 90 SSE 5 7 29.99 1016 10 16 0.00 0.00
11:53 pm 23:53 Clear 77 25 73 22.8 88 88 S 5 7 29.99 1016 10 16 0.00 0.00

Powered by AerisWeather